www.pogodaiklimat.ru
ПОГОДА в Хогевене
Время
(UTC), дата
17 20.02
16 20.02
18 20.02
19 20.02
20 20.02
21 20.02
23 20.02
22 20.02
00 21.02
01 21.02
02 21.02
03 21.02
05 21.02
04 21.02
06 21.02
07 21.02
08 21.02
09 21.02
11 21.02
10 21.02
12 21.02
13 21.02
14 21.02
15 21.02
17 21.02
16 21.02
18 21.02
19 21.02
20 21.02
21 21.02
23 21.02
22 21.02
00 22.02
01 22.02
02 22.02
03 22.02
05 22.02
04 22.02
06 22.02
07 22.02
08 22.02
09 22.02
11 22.02
10 22.02
12 22.02
13 22.02
14 22.02
15 22.02
17 22.02
16 22.02
18 22.02
19 22.02
20 22.02
21 22.02
23 22.02
22 22.02
00 23.02
01 23.02
02 23.02
03 23.02
05 23.02
04 23.02
06 23.02
07 23.02
08 23.02
09 23.02
11 23.02
10 23.02
12 23.02
13 23.02
14 23.02
15 23.02
17 23.02
16 23.02
18 23.02
19 23.02
20 23.02
21 23.02
23 23.02
22 23.02
00 24.02
01 24.02
02 24.02
03 24.02
05 24.02
04 24.02
06 24.02
07 24.02
08 24.02
09 24.02
11 24.02
10 24.02
12 24.02
13 24.02
14 24.02
15 24.02
17 24.02
16 24.02
18 24.02
19 24.02
20 24.02
21 24.02
23 24.02
22 24.02
00 25.02
01 25.02
02 25.02
03 25.02
05 25.02
04 25.02
06 25.02
07 25.02
08 25.02
09 25.02
11 25.02
10 25.02
12 25.02
13 25.02
14 25.02
15 25.02
17 25.02
16 25.02
18 25.02
19 25.02
20 25.02
21 25.02
23 25.02
22 25.02
00 26.02
01 26.02
02 26.02
03 26.02
05 26.02
04 26.02
06 26.02
07 26.02
08 26.02
09 26.02
11 26.02
10 26.02
12 26.02
13 26.02
14 26.02
15 26.02
17 26.02
16 26.02
18 26.02
19 26.02
20 26.02
21 26.02
23 26.02
22 26.02
00 27.02
01 27.02
02 27.02
03 27.02
05 27.02
04 27.02
06 27.02
07 27.02
08 27.02
09 27.02
11 27.02
10 27.02
12 27.02
13 27.02
14 27.02
15 27.02
16 27.02
Ветер
(напр.,м/с)
Видим. Явления Облачность Т
(С)
Тd
(С)
f
(%)
Тe
(С)
Тes
(С)
Комфортность P
(гПа)
Po
(гПа)
Тmin
(С)
Tmax
(С)
R
(мм)
R24
(мм)
S
(см)
Ю 8 30 км слаб. дождь {морось} 10/10 600 м
[]
+8.5 +5.8 83 +4 +4 1005.1 1003.0 0.1
ЮЗ 10 65 км слаб. ливневой дождь 10/10 600 м
[]
+9.4 +5.1 74 +5 +5 1006.2 1004.3
Ю 9-13
{16}
23 км дождь {ливн. осадки, морось} 10 баллов +8.0 +6.5 90 +3 +3 1004.5 1002.5 +10.3 0.7
З 8 7000 м дождь 10/6 600 м
[]
+5.1 +4.1 93 -1 -1 1006.1 1004.0 3
СЗ 9 22 км слаб. дождь 8/6 300 м
[]
+5.3 +3.8 90 -1 -1 1007.6 1005.5 2
З 6-10
{20}
15 км слаб. ливневой дождь {морось} 8 баллов +5.4 +4.0 91 0 0 1009.2 1007.0 0.1
З 6-9
{16}
35 км в посл. час дождь {ливн. осадки} 1/1 1000 м
[]
+4.4 +2.6 88 -1 -1 1012.8 1010.5 0.2
З 9-15
{15}
19 км слаб. ливневой дождь 10/6 1000 м
[]
+4.7 +2.7 87 -2 -2 1011.7 1009.2 0.6
З 7-11
{20}
30 км {ливн. осадки, дождь} 8 баллов +5.2 +1.3 76 -0 -0 1014.1 1011.9 5
З 7-10
{11}
27 км 9/9 1000 м
[]
+5.2 +1.5 77 -0 -0 1015.7 1013.3
З 6-9
{11}
26 км 10/10 1000 м
[]
+5.2 +1.7 78 0 0 1016.8 1014.5
З 7-10
{11}
27 км 10 баллов +5.5 +1.7 76 0 0 1017.6 1015.3
З 8 30 км 10/9 1000 м
[]
+5.5 +1.8 77 0 0 1019.5 1017.2
З 8 28 км 10/9 600 м
[]
+5.6 +1.7 76 0 0 1018.6 1016.4
ЮЗ 6-9
{13}
24 км 6 баллов +5.0 +1.9 80 0 0 1020.3 1018.0 +4.1 5 6.3
ЮЗ 5 21 км 1/1 600 м
[]
+3.8 +1.7 86 -1 -1 1021.0 1018.7
ЮЗ 5 25 км 9/9
[]
+4.5 +2.2 85 -0 -0 1021.7 1019.5
ЮЗ 6-8
{9}
25 км 10 баллов +5.5 +2.8 83 +1 +1 1022.2 1020.0
ЮЗ 8 30 км 9/9 600 м
[]
+7.3 +3.6 77 +2 +3 1022.3 1020.1
ЮЗ 6 29 км 10/10
[]
+6.2 +3.2 81 +2 +2 1022.5 1020.3
ЮЗ 9-13
{16}
35 км 9 баллов +8.5 +3.6 71 +4 +4 1022.2 1020.0 0.0
ЮЗ 10 35 км 10/9 1000 м
[]
+8.5 +3.9 73 +4 +4 1022.1 1019.8
ЮЗ 10 35 км 9/8 1500 м
[]
+8.2 +3.5 72 +3 +3 1021.6 1019.4
ЮЗ 8-12
{15}
35 км 9 баллов +8.0 +3.6 74 +3 +3 1021.4 1019.2
ЮЗ 8 30 км 10/10 600 м
[]
+8.2 +4.0 75 +4 +4 1021.0 1018.8
ЮЗ 9 40 км 10/9 1000 м
[]
+8.3 +3.8 73 +4 +4 1021.0 1018.8
ЮЗ 9-14
{15}
14 км слаб. ливневой дождь 10 баллов +7.7 +5.3 85 +3 +3 1020.8 1018.7 +8.7 0.1
ЮЗ 8 25 км в посл. час дождь {ливн. осадки, морось} 10/10 600 м
[]
+7.9 +5.1 82 +3 +3 1020.2 1018.0 0.1
ЮЗ 9 35 км в посл. час дождь {ливн. осадки, морось} 10/8 1000 м
[]
+8.0 +4.8 80 +3 +3 1020.5 1018.1
ЮЗ 8-13
{15}
30 км {ливн. осадки, морось} 10 баллов +8.0 +4.5 79 +3 +3 1019.8 1017.7
ЮЗ 9-14
{14}
30 км {ливн. осадки, морось} 10/10 600 м
[]
+8.4 +4.4 76 +4 +4 1018.4 1016.3
ЮЗ 9-13
{14}
30 км {ливн. осадки, морось} 10/10 1000 м
[]
+8.4 +4.4 76 +4 +4 1019.0 1016.9
ЮЗ 9-14
{15}
29 км {ливн. осадки, морось} 10 баллов +8.5 +4.6 76 +4 +4 1018.4 1016.3 0.1
ЮЗ 9-13
{16}
35 км 10/10 600 м
[]
+8.5 +4.5 76 +4 +4 1017.1 1015.2
ЮЗ 10-14
{15}
35 км 10/10 600 м
[]
+8.5 +4.3 75 +4 +4 1016.3 1014.2
ЮЗ 11-16
{16}
30 км 10 баллов +8.4 +4.3 75 +3 +3 1015.2 1013.3
ЮЗ 10 30 км 10/10
[]
+7.5 +4.1 79 +2 +2 1013.5 1011.4
ЮЗ 10 35 км 10/10
[]
+8.1 +4.3 77 +3 +3 1014.4 1012.4
ЮЗ 9-13
{17}
45 км 10 баллов +7.5 +3.7 77 +2 +2 1012.5 1010.6 +7.4 0.1 0.2
ЮЗ 8 12 км слаб. ливневой дождь 10/10 1500 м
[]
+6.9 +4.6 85 +2 +2 1013.0 1011.0 0.8
ЮЗ 9 6000 м дождь {ливн. осадки} 10/9 600 м
[]
+6.8 +4.7 86 +1 +1 1013.3 1011.2 2
ЮЗ 11-17
{17}
40 км в посл. час дождь {ливн. осадки} 10 баллов +7.3 +4.8 84 +2 +2 1012.4 1010.3 0.5
ЮЗ 11 12 км слаб. морось {дождь} 10/10 300 м
[]
+8.1 +6.1 87 +3 +3 1012.8 1010.7
ЮЗ 12 35 км {ливн. осадки, дождь} 10/10 300 м
[]
+8.0 +5.0 81 +2 +2 1013.1 1010.9
ЮЗ 14-19
{21}
23 км в посл. час морось {ливн. осадки, дождь} 10 баллов +8.9 +6.8 87 +3 +3 1013.1 1010.8 4
ЮЗ 12 23 км в посл. час морось 10/8 300 м
[]
+9.8 +7.5 86 +5 +5 1012.7 1010.5
З 11 15 км слаб. морось 10/9 600 м
[]
+10.9 +8.1 83 +7 +7 1012.7 1010.6
З 10-17
{20}
40 км в посл. час дождь {ливн. осадки} 10 баллов +9.7 +5.9 77 +5 +5 1013.8 1011.7 1
З 9 25 км слаб. ливневой дождь {морось} 6/6 1500 м
[]
+10.0 +6.6 79 +6 +6 1015.0 1012.9
З 10 29 км {ливн. осадки, морось} 10/10
[]
+10.0 +6.3 78 +6 +6 1014.5 1012.1
З 8-12
{20}
12 км слаб. ливневой дождь {морось} 9 баллов +9.4 +7.5 88 +5 +5 1015.7 1013.6 +11.1 0.1
З 9 45 км в посл. час дождь {ливн. осадки} 9/6 2000 м
[]
+8.7 +6.1 84 +4 +4 1016.2 1014.0 0.7
З 8 25 км {ливн. осадки, дождь} 10/10 1500 м
[]
+9.3 +5.7 78 +5 +5 1016.2 1014.2
З 8-12
{17}
35 км {ливн. осадки, дождь} 10 баллов +8.6 +4.4 75 +4 +4 1016.5 1014.4
З 6-9
{11}
30 км {ливн. осадки, дождь} 10/10 1500 м
[]
+8.4 +3.8 73 +5 +5 1017.3 1015.3
З 8-14
{16}
29 км {ливн. осадки, дождь} 10/10 2000 м
[]
+8.7 +4.6 75 +4 +4 1017.1 1015.0
ЮЗ 7-10
{17}
40 км {ливн. осадки, дождь} 10 баллов +8.0 +4.5 79 +4 +4 1017.1 1015.0 0.7
З 8-11
{11}
30 км слаб. ливневой дождь 9/6 1000 м
[]
+8.1 +5.6 84 +3 +3 1016.4 1014.5
З 8-13
{15}
23 км в посл. час дождь {ливн. осадки} 8/8 1500 м
[]
+8.5 +5.4 81 +4 +4 1016.4 1014.4
З 6-10
{15}
17 км слаб. ливневой дождь {морось} 10 баллов +7.4 +5.2 86 +3 +3 1015.9 1013.8 0.1
З 6 12 км дождь {ливн. осадки, морось} 9/8 600 м
[]
+6.4 +5.5 94 +2 +2 1014.1 1012.0 2
З 5 10 км дождь {ливн. осадки, морось} 10/8 600 м
[]
+6.5 +5.4 93 +2 +2 1015.6 1013.6 1
ЮЗ 7-12
{15}
9000 м дождь {ливн. осадки, морось} 10 баллов +6.4 +5.2 92 +1 +1 1012.3 1010.4 +6.3 2 10.4
ЮЗ 4 8000 м дождь 9/6 600 м
[]
+5.9 +5.3 96 +2 +2 1011.1 1009.0 2
Ю 2 9000 м дождь 10/8 600 м
[]
+5.7 +5.5 99 +3 +3 1009.0 1007.1 3
ЮВ 2-3
{12}
8000 м дождь 10 баллов +5.9 +5.9 100 +3 +4 1006.9 1004.9 3
З 9 10 км слаб. дождь 10/8 200 м
[]
+10.5 +10.2 98 +6 +6 1003.0 1001.0 3
Ю 2 7000 м дождь 10/9 100 м
[]
+6.5 +6.5 100 +4 +4 1004.5 1002.5 3
З 15-23
{23}
6000 м слаб. морось {дождь} 10 баллов +11.3 +10.0 92 +6 +6 1002.8 1000.7 13
З 14 4900 м слаб. дождь {морось} 10/9 300 м
[]
+11.3 +10.2 93 +7 +7 1003.3 1000.9 0.4
З 14 35 км в посл. час дождь {ливн. осадки, морось} 10/6 300 м
[]
+10.7 +8.2 85 +6 +6 1004.5 1002.3 0.3
З 12-19
{25}
>70 км в посл. час морось {ливн. осадки, дождь} 10 баллов +8.5 +6.1 85 +3 +3 1007.3 1005.0
СЗ 7 45 км {ливн. осадки, морось} 10/6 1000 м
[]
+5.7 +4.1 89 0 0 1012.6 1010.3
СЗ 11 н/о {ливн. осадки, морось} 9/6 300 м
[]
+6.8 +5.7 93 +1 +1 1009.9 1007.6 0.9
З 6-9
{25}
60 км 4 балла +5.6 +3.9 89 +1 +1 1014.2 1011.8 +11.6 14
З 8 45 км 9/9
[]
+6.1 +2.8 79 +1 +1 1015.7 1013.4
З 7 30 км 9/9
[]
+5.7 +1.5 74 +1 +1 1017.4 1015.1
З 7-11
{14}
30 км 8 баллов +5.7 +1.1 72 +1 +1 1018.8 1016.5
З 5-6
{9}
22 км 1/1 600 м
[]
+5.3 +1.9 79 +1 +1 1020.2 1018.0
З 6-9
{11}
29 км 4/4
[]
+5.7 +1.6 75 +1 +1 1019.6 1017.3
З 5-7
{14}
22 км 1 балл +5.0 +2.0 81 0 0 1020.8 1018.6
З 5-7
{7}
21 км 6/6
[]
+4.8 +2.3 84 0 0 1021.7 1019.5
З 4-6
{6}
21 км 9/9
[]
+4.7 +2.5 86 0 0 1022.0 1019.7
З 4-5
{7}
20 км 10 баллов +4.0 +2.4 89 -1 -1 1021.9 1019.5
ЮЗ 4 19 км 10/10
[]
+3.9 +2.7 92 -1 -1 1021.1 1019.1
ЮЗ 3 19 км 10/10
[]
+3.9 +2.5 91 0 0 1021.5 1019.2
ЮЗ 4-5
{7}
21 км 10 баллов +3.5 +2.4 92 -1 -1 1020.6 1018.4 +3.5 14.2
Ю 4 23 км 10/10
[]
+3.5 +2.1 91 -1 -1 1019.9 1017.7
Ю 4 27 км 9/9 1500 м
[]
+3.7 +2.3 91 -1 -1 1018.9 1016.9
Ю 4-6
{6}
29 км 8 баллов +4.2 +2.1 86 -0 0 1016.8 1014.8
Ю 5 30 км слаб. дождь 10/10 1000 м
[]
+4.5 +2.2 85 -0 -0 1012.8 1010.8 0.5
Ю 5 20 км слаб. ливневой дождь 10/9 1000 м
[]
+4.4 +2.1 85 -1 -0 1014.6 1012.6
Ю 7-11
{11}
6000 м слаб. дождь {морось} 10 баллов +4.6 +2.4 86 -1 -1 1010.7 1008.7 0.1
Ю 7 8000 м дождь 10/10 200 м
[]
+4.6 +4.1 97 -1 -1 1007.1 1005.3 0.8
Ю 6 5000 м дождь 10/10 200 м
[]
+5.9 +5.7 99 +1 +1 1004.6 1002.6 3
Ю 6-10
{12}
6000 м дождь 10 баллов +7.6 +7.6 100 +3 +3 1002.6 1000.6 4
ЮЗ 9 8000 м дождь 10/10 300 м
[]
+9.4 +8.7 95 +5 +5 1000.8 998.7 3
ЮЗ 10 5000 м дождь 10/8 300 м
[]
+9.4 +8.9 97 +4 +4 1001.4 999.3 4
З 9-13
{16}
65 км в посл. час дождь 10 баллов +9.7 +8.6 93 +5 +5 1000.9 998.7 +9.7 0.8
ЮЗ 10 35 км в посл. час дождь {ливн. осадки} 10/10 300 м
[]
+10.0 +8.5 90 +5 +5 1000.4 998.4
ЮЗ 10 18 км слаб. ливневой дождь {морось} 10/10 300 м
[]
+9.8 +8.7 93 +5 +5 1000.0 997.8 0.4
ЮЗ 11-16
{16}
29 км в посл. час дождь {ливн. осадки, морось} 10 баллов +10.1 +8.6 90 +5 +5 999.6 997.6
З 10-14
{16}
40 км {ливн. осадки, морось} 10/10 300 м
[]
+10.4 +7.9 84 +6 +6 998.8 996.7
ЮЗ 10-15
{16}
45 км {ливн. осадки, морось} 10/10 300 м
[]
+10.5 +8.5 87 +6 +6 999.1 997.0
З 11-15
{16}
29 км слаб. морось 10 баллов +9.9 +7.1 83 +5 +5 998.9 996.6 0.4
З 8-13
{18}
40 км в посл. час дождь {ливн. осадки} 9/9 1000 м
[]
+7.7 +4.0 77 +3 +3 999.3 997.2 0.6
З 9-12
{14}
50 км {ливн. осадки, дождь} ясно +6.9 +2.1 71 +2 +2 999.3 997.2
З 8-11
{18}
60 км {ливн. осадки, дождь} 1 балл +6.3 +2.1 74 +1 +1 999.1 997.0
ЮЗ 7 55 км {ливн. осадки, дождь} 10/10 1000 м
[]
+6.3 +2.6 77 +1 +1 998.5 996.5
З 8 40 км {ливн. осадки, дождь} 6/6 600 м
[]
+6.1 +2.3 77 +1 +1 998.8 996.6
З 8-11
{18}
60 км {ливн. осадки, дождь} 10 баллов +6.5 +2.5 76 +1 +1 997.9 995.9 +6.0 0.9 16.9
З 8 55 км в посл. час морось 9/9 1000 м
[]
+6.3 +2.1 74 +1 +1 997.6 995.6
З 8 45 км в посл. час дождь {ливн. осадки} 9/8 1000 м
[]
+6.3 +1.7 72 +1 +1 997.4 995.4
З 8-13
{15}
50 км {ливн. осадки, морось} 6 баллов +6.6 +2.3 74 +2 +2 997.3 995.3
З 9 50 км {ливн. осадки, морось} 10/10 1000 м
[]
+7.3 +1.9 69 +2 +2 997.0 994.9
З 12 50 км {ливн. осадки, морось} 8/8 1000 м
[]
+6.7 +1.1 67 +1 +1 997.1 995.0
З 12-17
{18}
50 км слаб. ливневой дождь {морось} 6 баллов +6.9 +1.6 69 +1 +1 997.1 994.9
З 10 55 км в посл. час дождь 9/9
[]
+7.8 +2.3 68 +3 +3 996.5 994.4
З 9 50 км 5/5 1500 м
[]
+7.1 +1.4 67 +2 +2 996.1 994.0
З 9-14
{18}
26 км слаб. ливневой дождь 8 баллов +6.5 +1.9 72 +1 +1 995.5 993.5
З 5 60 км {ливн. осадки} 9/9
[]
+5.4 +1.9 78 +1 +1 994.8 992.7
З 7 >70 км в посл. час дождь {ливн. осадки} 6/6 1000 м
[]
+6.3 +1.5 71 +1 +1 995.1 993.0
З 4-6
{18}
35 км {ливн. осадки} 10 баллов +5.2 +2.4 82 +1 +1 994.6 992.6 +8.3
ЮЗ 3 50 км 10/10
[]
+3.9 +1.9 87 0 0 994.4 992.3
ЮЗ 3 50 км 9/9
[]
+2.9 +1.2 89 -1 -1 993.8 991.7
ЮЗ 3-3
{7}
35 км ясно +2.0 +0.9 92 -2 -2 993.1 991.0
ЮЗ 4-5
{6}
20 км 10/10
[]
+3.0 +1.9 92 -2 -2 992.2 990.1
ЮЗ 4-6
{6}
35 км 9/9
[]
+2.8 +1.3 90 -2 -2 992.7 990.5
ЮЗ 3-4
{7}
16 км 10 баллов +2.8 +2.0 94 -1 -1 991.6 989.5
ЮЗ 4-6
{6}
11 км слаб. ливневой дождь {морось} 9/8 600 м
[]
+3.1 +2.1 93 -2 -2 991.5 989.4 0.3
ЮЗ 2-3
{5}
14 км слаб. дождь со снегом 9/6 600 м
[]
+2.7 +2.1 96 -1 -1 991.3 989.2 0.9
Ю 2-2
{6}
8000 м слаб. ливневой дождь 10 баллов +2.2 +1.9 98 -1 -1 991.1 989.0 0.2
З 3 13 км слаб. ливневой дождь 10/8 100 м
[]
+2.1 +1.9 99 -2 -2 991.7 989.6 0.5
ЮЗ 2 6000 м слаб. дождь 10/10 100 м
[]
+2.4 +2.2 99 -1 -1 991.3 989.1 0.1
З 3-4
{6}
13 км в посл. час дождь {ливн. осадки} 10 баллов +2.0 +1.9 99 -3 -3 992.2 990.0 +1.8 2 2.0
З 3 17 км 10/10
[]
+2.1 +1.8 98 -2 -2 992.9 990.7
З 3 35 км 10/9
[]
+2.2 +1.8 97 -2 -2 994.0 991.8
З 5-8
{8}
55 км 10 баллов +4.0 +2.9 93 -1 -1 994.9 992.7
СЗ 6 4300 м дождь со снегом {ливн. осадки} 10/6 600 м
[]
+2.7 +1.5 92 -3 -3 996.6 994.4 1
СЗ 5 60 км 9/8 300 м
[]
+4.8 +2.7 86 0 0 995.7 993.5
З 4-6
{13}
>70 км в посл. час дождь {ливн. осадки} 9 баллов +4.1 +2.7 91 -0 +1 997.0 994.9 0.2
СЗ 6 65 км в посл. час дождь {ливн. осадки} 10/10
[]
+5.3 +2.1 80 0 0 997.7 995.5
СЗ 4 29 км слаб. ливневой дождь 10/9 600 м
[]
+3.2 +2.0 92 -2 -2 998.9 996.6 1
З 5-7
{11}
65 км слаб. дождь 9 баллов +4.3 +2.3 87 -1 -1 999.5 997.3 0.3
З 5 >70 км в посл. час дождь {ливн. осадки} 9/9
[]
+4.1 +2.1 87 -1 -1 1001.0 998.8 0.1
З 4 >70 км в посл. час дождь {ливн. осадки} 10/10
[]
+4.7 +2.7 87 0 0 1000.2 998.0
З 5-8
{11}
16 км слаб. ливневой дождь 8 баллов +3.9 +2.2 89 -1 -1 1002.1 999.8 +5.8 3
З 4 45 км в посл. час дождь ясно +3.1 +2.0 92 -2 -2 1002.8 1000.5
З 4 >70 км в посл. час дождь 9/9
[]
+3.2 +1.7 90 -2 -2 1003.0 1000.8
З 4-7
{8}
16 км слаб. дождь со снегом 5 баллов +3.2 +1.7 90 -2 -2 1003.6 1001.4
ЮЗ 4-6
{6}
50 км {ливн. осадки, снег} 6/6 1000 м
[]
+2.3 +1.3 93 -3 -3 1003.6 1001.4
ЮЗ 3-5
{6}
40 км в посл. час дождь {ливн. осадки} 1/1 600 м
[]
+1.8 +1.1 95 -3 -3 1003.6 1001.4
ЮЗ 5-7
{8}
35 км {ливн. осадки, снег} 9 баллов +2.0 +1.1 94 -4 -4 1003.6 1001.5 0.0
ЮЗ 3-4
{7}
45 км в посл. час снег 10/6 600 м
[]
+2.2 +1.6 96 -2 -2 1003.9 1001.7
ЮЗ 5-7
{7}
35 км 3/3 300 м
[]
+1.5 +1.0 96 -4 -4 1003.8 1001.6
ЮЗ 3-5
{7}
21 км слаб. морось 9 баллов +1.3 +1.0 98 -3 -3 1003.7 1001.5
Ю 4 19 км {ливн. осадки, морось} 10/10
[]
+1.1 +0.5 96 -4 -4 1002.6 1000.4
ЮЗ 4 29 км в посл. час дождь {ливн. осадки, морось} 5/5
[]
+0.6 +0.2 97 -5 -5 1003.4 1001.2
Ю 3-4
{7}
10 км {ливн. осадки, морось} 10 баллов +0.7 +0.4 98 -4 -4 1001.9 999.8 +0.6 0.1 3.3
Ю 3 8000 м дымка 10/10
[]
+1.0 +0.6 97 -4 -4 1001.5 999.3
Ю 3 6000 м дымка 10/8 1000 м
[]
+1.5 +1.1 97 -3 -3 1000.9 998.8
Ю 5-7
{7}
7000 м дымка 10 баллов +2.1 +1.6 96 -4 -4 1000.2 998.1
Ю 4 20 км в посл. час дождь {ливн. осадки} 8/8 300 м
[]
+3.3 +2.0 91 -1 -1 998.8 996.7 0.2
Ю 5 13 км 5/4 1000 м
[]
+2.9 +2.1 94 -3 -1 999.5 997.3
Ю 4-6
{7}
12 км слаб. ливневой дождь 10 баллов +3.4 +2.1 91 -1 -1 998.1 996.0 0.2
ЮЗ 3 30 км слаб. дождь 3/1 300 м
[]
+3.1 +1.5 89 -1 +2 997.0 994.9 0.1
ЮВ 2 30 км слаб. ливневой дождь 10/8 600 м
[]
+3.3 +1.2 86 0 +1 996.5 994.4
ЮВ 2 18 км слаб. ливневой дождь 10/6 300 м
[]
+3.3 +1.7 89 0 +1 996.9 994.6
ЮВ 2 11 км слаб. дождь со снегом 10/10 300 м
[]
+3.0 +1.2 88 -0 -0 997.7 995.5 0.3
Местоположение метеостанции Хогевен (Нидерланды): широта 52.75 долгота 6.52 высота над уровнем моря 16 м.
В архиве по умолчанию представлена погода в Хогевене за последнюю неделю. Архивные данные за месяц целиком и за предыдущие месяцы, начиная с января 2011 года, Вы можете получить, выбрав интересующий диапазон дат из раскрывающегося списка и нажав кнопку "Найти!".
*Определитесь, кто Вы:
Внимание! Время в таблицах - всемирное. Для получения местного времени необходимо прибавить поправку, которая равна 1 ч.
Смотрите также архив погоды в соседних городах и на ближайших метеорологических станциях:
Партнеры нашего сайта:      
Пояснения к столбцам:
  • Ветер - указаны скорость ветра в м/с - средняя за 10 мин, порывы в срок и между сроками (в фигурных скобках) и направление, откуда дует ветер: С - северный,
  • СВ - северо-восточный, В - восточный, ЮВ - юго-восточный, Ю - южный, ЮЗ - юго-западный, З - западный, СЗ - северо-западный.
  • Видимость - горизонтальная дальность видимости в метрах или километрах. При видимости от 1 до 10 км при отсутствии осадков обычно наблюдается дымка, при ухудшении видимости до 1 км и менее - туман. В сухую погоду видимость может ухудшаться дымом, пылью или мглою.
  • Явления - указаны атмосферные явления, наблюдавшиеся в срок или в последний час перед сроком; фигурными скобками обозначены явления, наблюдавшиеся между сроками (за 1-3 часа до срока); квадратными скобками обозначены град или гололедные отложения с указанием их диаметра в мм.
  • Облачность - указаны через наклонную черту общая и нижняя облачность в баллах и высота нижней границы облаков в метрах; квадратными скобками обозначены формы облаков: Ci - перистые, Cs - перисто-слоистые, Cc - перисто-кучевые, Ac - высококучевые, As - высокослоистые, Sc - слоисто-кучевые, Ns - слоисто-дождевые, Cu - кучевые, Cb - кучево-дождевые. Подробнее классификацию облаков см. в Атласе облаков (PDF).
  • T - Температура воздуха - температура, измеренная на высоте 2 м над землей.
  • Td - Температура точки росы - температура, при понижении до которой содержащийся в воздухе водяной пар достигнет насыщения.
  • f - Относительная влажность воздуха - влажноcть воздуха, измеренная на высоте 2 м над землей.
  • Te - Эффективная температура - температура, которую ощущает одетый по сезону человек в тени. Характеристика душности погоды. При расчете учитывается влияние влажности воздуха и скорости ветра на теплоощущения человека.
  • Tes - Эффективная температура на солнце - температура, которую ощущает человек, с поправкой на солнечный нагрев. Характеристика знойности погоды. Зависит от высоты солнца над горизонтом, облачности и скорости ветра. Ночью, в пасмурную погоду, а также при ветре 12 м/с и более поправка равна нулю.
  • P - Атмосферное давление - приведенное к уровню моря атмосферное давление.
  • Po - Атмосферное давление - измеренное на уровне метеостанции атмосферное давление.
  • Tmin - Минимальная температура - минимум температуры воздуха на высоте 2 м над землей.
  • Tmax - Максимальная температура - максимум температуры воздуха на высоте 2 м над землей.
  • R - Количество осадков - Количество выпавших осадков за период времени, мм. При наведении курсора мыши на число - период времени, за который выпало указанное количество осадков.
  • R24 - Количество осадков - Количество выпавших осадков за 24 часа, мм.
  • S - Снежный покров - Высота снежного покрова, см. При наведении курсора мыши на число - состояние снежного покрова и степень покрытия местности в баллах.